Year,Month,Day,Hour,Minute,Value (Times are PST for temperature in C)
2008,08,22,00,00,15.00
2008,08,22,00,01,15.00
2008,08,22,00,02,15.00
2008,08,22,00,03,15.00
2008,08,22,00,04,15.00
2008,08,22,00,05,15.00
2008,08,22,00,06,15.00
2008,08,22,00,07,15.00
2008,08,22,00,08,15.00
2008,08,22,00,09,15.00
2008,08,22,00,10,15.00
2008,08,22,00,11,15.00
2008,08,22,00,12,15.00
2008,08,22,00,13,15.00
2008,08,22,00,14,15.00
2008,08,22,00,15,15.00
2008,08,22,00,16,15.00
2008,08,22,00,17,15.10
2008,08,22,00,18,15.10
2008,08,22,00,19,15.10
2008,08,22,00,20,15.10
2008,08,22,00,21,15.20
2008,08,22,00,22,15.20
2008,08,22,00,23,15.20
2008,08,22,00,24,15.20
2008,08,22,00,25,15.20
2008,08,22,00,26,15.20
2008,08,22,00,27,15.20
2008,08,22,00,28,15.20
2008,08,22,00,29,15.20
2008,08,22,00,30,15.20
2008,08,22,00,31,15.20
2008,08,22,00,32,15.30
2008,08,22,00,33,15.30
2008,08,22,00,34,15.30
2008,08,22,00,35,15.30
2008,08,22,00,36,15.30
2008,08,22,00,37,15.30
2008,08,22,00,38,15.30
2008,08,22,00,39,15.20
2008,08,22,00,40,15.30
2008,08,22,00,41,15.30
2008,08,22,00,42,15.30
2008,08,22,00,43,15.30
2008,08,22,00,44,15.30
2008,08,22,00,45,15.20
2008,08,22,00,46,15.20
2008,08,22,00,47,15.20
2008,08,22,00,48,15.20
2008,08,22,00,49,15.10
2008,08,22,00,50,15.10
2008,08,22,00,51,15.10
2008,08,22,00,52,15.00
2008,08,22,00,53,15.00
2008,08,22,00,54,15.00
2008,08,22,00,55,15.00
2008,08,22,00,56,15.00
2008,08,22,00,57,15.00
2008,08,22,00,58,15.00
2008,08,22,00,59,15.00
2008,08,22,01,00,15.00
2008,08,22,01,01,15.00
2008,08,22,01,02,15.00
2008,08,22,01,03,15.00
2008,08,22,01,04,15.00
2008,08,22,01,05,15.00
2008,08,22,01,06,15.00
2008,08,22,01,07,15.00
2008,08,22,01,08,15.00
2008,08,22,01,09,15.00
2008,08,22,01,10,15.00
2008,08,22,01,11,15.00
2008,08,22,01,12,14.90
2008,08,22,01,13,14.90
2008,08,22,01,14,14.90
2008,08,22,01,15,14.90
2008,08,22,01,16,14.90
2008,08,22,01,17,14.90
2008,08,22,01,18,14.90
2008,08,22,01,19,14.90
2008,08,22,01,20,14.90
2008,08,22,01,21,14.90
2008,08,22,01,22,14.90
2008,08,22,01,23,15.00
2008,08,22,01,24,15.00
2008,08,22,01,25,15.00
2008,08,22,01,26,15.00
2008,08,22,01,27,15.00
2008,08,22,01,28,15.00
2008,08,22,01,29,15.00
2008,08,22,01,30,15.00
2008,08,22,01,31,15.00
2008,08,22,01,32,15.00
2008,08,22,01,33,15.00
2008,08,22,01,34,15.00
2008,08,22,01,35,15.00
2008,08,22,01,36,15.00
2008,08,22,01,37,15.00
2008,08,22,01,38,15.00
2008,08,22,01,39,15.00
2008,08,22,01,40,15.00
2008,08,22,01,41,15.00
2008,08,22,01,42,15.00
2008,08,22,01,43,15.00
2008,08,22,01,44,15.00
2008,08,22,01,45,15.00
2008,08,22,01,46,15.00
2008,08,22,01,47,15.00
2008,08,22,01,48,15.00
2008,08,22,01,49,15.00
2008,08,22,01,50,15.00
2008,08,22,01,51,15.00
2008,08,22,01,52,15.00
2008,08,22,01,53,15.00
2008,08,22,01,54,15.00
2008,08,22,01,55,15.00
2008,08,22,01,56,15.00
2008,08,22,01,57,15.00
2008,08,22,01,58,15.00
2008,08,22,01,59,14.90
2008,08,22,02,00,14.90
2008,08,22,02,01,14.80
2008,08,22,02,02,14.80
2008,08,22,02,03,14.70
2008,08,22,02,04,14.70
2008,08,22,02,05,14.70
2008,08,22,02,06,14.70
2008,08,22,02,07,14.70
2008,08,22,02,08,14.60
2008,08,22,02,09,14.60
2008,08,22,02,10,14.60
2008,08,22,02,11,14.60
2008,08,22,02,12,14.60
2008,08,22,02,13,14.60
2008,08,22,02,14,14.50
2008,08,22,02,15,14.50
2008,08,22,02,16,14.50
2008,08,22,02,17,14.40
2008,08,22,02,18,14.40
2008,08,22,02,19,14.40
2008,08,22,02,20,14.30
2008,08,22,02,21,14.30
2008,08,22,02,22,14.30
2008,08,22,02,23,14.30
2008,08,22,02,24,14.20
2008,08,22,02,25,14.20
2008,08,22,02,26,14.10
2008,08,22,02,27,14.10
2008,08,22,02,28,14.10
2008,08,22,02,29,14.10
2008,08,22,02,30,14.10
2008,08,22,02,31,14.00
2008,08,22,02,32,14.00
2008,08,22,02,33,14.00
2008,08,22,02,34,14.00
2008,08,22,02,35,13.90
2008,08,22,02,36,13.90
2008,08,22,02,37,13.90
2008,08,22,02,38,13.80
2008,08,22,02,39,13.80
2008,08,22,02,40,13.80
2008,08,22,02,41,13.80
2008,08,22,02,42,13.70
2008,08,22,02,43,13.70
2008,08,22,02,44,13.70
2008,08,22,02,45,13.60
2008,08,22,02,46,13.50
2008,08,22,02,47,13.50
2008,08,22,02,48,13.40
2008,08,22,02,49,13.40
2008,08,22,02,50,13.40
2008,08,22,02,51,13.30
2008,08,22,02,52,13.30
2008,08,22,02,53,13.30
2008,08,22,02,54,13.20
2008,08,22,02,55,13.20
2008,08,22,02,56,13.20
2008,08,22,02,57,13.20
2008,08,22,02,58,13.10
2008,08,22,02,59,13.10
2008,08,22,03,00,13.10
2008,08,22,03,01,13.10
2008,08,22,03,02,13.00
2008,08,22,03,03,13.00
2008,08,22,03,04,13.00
2008,08,22,03,05,12.90
2008,08,22,03,06,12.90
2008,08,22,03,07,12.90
2008,08,22,03,08,12.90
2008,08,22,03,09,12.80
2008,08,22,03,10,12.80
2008,08,22,03,11,12.80
2008,08,22,03,12,12.80
2008,08,22,03,13,12.80
2008,08,22,03,14,12.80
2008,08,22,03,15,12.80
2008,08,22,03,16,12.80
2008,08,22,03,17,12.80
2008,08,22,03,18,12.70
2008,08,22,03,19,12.70
2008,08,22,03,20,12.70
2008,08,22,03,21,12.70
2008,08,22,03,22,12.70
2008,08,22,03,23,12.70
2008,08,22,03,24,12.70
2008,08,22,03,25,12.70
2008,08,22,03,26,12.70
2008,08,22,03,27,12.60
2008,08,22,03,28,12.60
2008,08,22,03,29,12.60
2008,08,22,03,30,12.60
2008,08,22,03,31,12.60
2008,08,22,03,32,12.60
2008,08,22,03,33,12.60
2008,08,22,03,34,12.60
2008,08,22,03,35,12.50
2008,08,22,03,36,12.50
2008,08,22,03,37,12.50
2008,08,22,03,38,12.50
2008,08,22,03,39,12.50
2008,08,22,03,40,12.50
2008,08,22,03,41,12.50
2008,08,22,03,42,12.50
2008,08,22,03,43,12.50
2008,08,22,03,44,12.50
2008,08,22,03,45,12.50
2008,08,22,03,46,12.50
2008,08,22,03,47,12.50
2008,08,22,03,48,12.50
2008,08,22,03,49,12.50
2008,08,22,03,50,12.50
2008,08,22,03,51,12.50
2008,08,22,03,52,12.50
2008,08,22,03,53,12.50
2008,08,22,03,54,12.50
2008,08,22,03,55,12.50
2008,08,22,03,56,12.50
2008,08,22,03,57,12.50
2008,08,22,03,58,12.50
2008,08,22,03,59,12.50
2008,08,22,04,00,12.50
2008,08,22,04,01,12.50
2008,08,22,04,02,12.50
2008,08,22,04,03,12.50
2008,08,22,04,04,12.50
2008,08,22,04,05,12.60
2008,08,22,04,06,12.60
2008,08,22,04,07,12.60
2008,08,22,04,08,12.60
2008,08,22,04,09,12.60
2008,08,22,04,10,12.60
2008,08,22,04,11,12.60
2008,08,22,04,12,12.60
2008,08,22,04,13,12.60
2008,08,22,04,14,12.60
2008,08,22,04,15,12.60
2008,08,22,04,16,12.60
2008,08,22,04,17,12.60
2008,08,22,04,18,12.60
2008,08,22,04,19,12.60
2008,08,22,04,20,12.60
2008,08,22,04,21,12.60
2008,08,22,04,22,12.50
2008,08,22,04,23,12.50
2008,08,22,04,24,12.50
2008,08,22,04,25,12.50
2008,08,22,04,26,12.50
2008,08,22,04,27,12.50
2008,08,22,04,28,12.40
2008,08,22,04,29,12.40
2008,08,22,04,30,12.40
2008,08,22,04,31,12.40
2008,08,22,04,32,12.40
2008,08,22,04,33,12.40
2008,08,22,04,34,12.40
2008,08,22,04,35,12.40
2008,08,22,04,36,12.40
2008,08,22,04,37,12.40
2008,08,22,04,38,12.30
2008,08,22,04,39,12.30
2008,08,22,04,40,12.30
2008,08,22,04,41,12.30
2008,08,22,04,42,12.30
2008,08,22,04,43,12.30
2008,08,22,04,44,12.30
2008,08,22,04,45,12.30
2008,08,22,04,46,12.30
2008,08,22,04,47,12.30
2008,08,22,04,48,12.30
2008,08,22,04,49,12.30
2008,08,22,04,50,12.30
2008,08,22,04,51,12.30
2008,08,22,04,52,12.30
2008,08,22,04,53,12.30
2008,08,22,04,54,12.30
2008,08,22,04,55,12.30
2008,08,22,04,56,12.30
2008,08,22,04,57,12.30
2008,08,22,04,58,12.40
2008,08,22,04,59,12.30
2008,08,22,05,00,12.30
2008,08,22,05,01,12.30
2008,08,22,05,02,12.30
2008,08,22,05,03,12.30
2008,08,22,05,04,12.30
2008,08,22,05,05,12.30
2008,08,22,05,06,12.30
2008,08,22,05,07,12.30
2008,08,22,05,08,12.30
2008,08,22,05,09,12.30
2008,08,22,05,10,12.30
2008,08,22,05,11,12.30
2008,08,22,05,12,12.30
2008,08,22,05,13,12.30
2008,08,22,05,14,12.30
2008,08,22,05,15,12.30
2008,08,22,05,16,12.30
2008,08,22,05,17,12.30
2008,08,22,05,18,12.30
2008,08,22,05,19,12.30
2008,08,22,05,20,12.30
2008,08,22,05,21,12.30
2008,08,22,05,22,12.30
2008,08,22,05,23,12.30
2008,08,22,05,24,12.30
2008,08,22,05,25,12.20
2008,08,22,05,26,12.20
2008,08,22,05,27,12.20
2008,08,22,05,28,12.20
2008,08,22,05,29,12.20
2008,08,22,05,30,12.20
2008,08,22,05,31,12.20
2008,08,22,05,32,12.20
2008,08,22,05,33,12.20
2008,08,22,05,34,12.20
2008,08,22,05,35,12.20
2008,08,22,05,36,12.20
2008,08,22,05,37,12.20
2008,08,22,05,38,12.20
2008,08,22,05,39,12.20
2008,08,22,05,40,12.20
2008,08,22,05,41,12.20
2008,08,22,05,42,12.20
2008,08,22,05,43,12.20
2008,08,22,05,44,12.20
2008,08,22,05,45,12.10
2008,08,22,05,46,12.10
2008,08,22,05,47,12.10
2008,08,22,05,48,12.10
2008,08,22,05,49,12.10
2008,08,22,05,50,12.10
2008,08,22,05,51,12.10
2008,08,22,05,52,12.10
2008,08,22,05,53,12.10
2008,08,22,05,54,12.10
2008,08,22,05,55,12.10
2008,08,22,05,56,12.10
2008,08,22,05,57,12.10
2008,08,22,05,58,12.10
2008,08,22,05,59,12.10
2008,08,22,06,00,12.10
2008,08,22,06,01,12.10
2008,08,22,06,02,12.10
2008,08,22,06,03,12.10
2008,08,22,06,04,12.10
2008,08,22,06,05,12.00
2008,08,22,06,06,12.00
2008,08,22,06,07,12.00
2008,08,22,06,08,12.00
2008,08,22,06,09,12.00
2008,08,22,06,10,12.00
2008,08,22,06,11,11.90
2008,08,22,06,12,11.90
2008,08,22,06,13,11.90
2008,08,22,06,14,11.90
2008,08,22,06,15,11.90
2008,08,22,06,16,11.90
2008,08,22,06,17,11.90
2008,08,22,06,18,11.90
2008,08,22,06,19,11.90
2008,08,22,06,20,11.80
2008,08,22,06,21,11.80
2008,08,22,06,22,11.80
2008,08,22,06,23,11.80
2008,08,22,06,24,11.80
2008,08,22,06,25,11.80
2008,08,22,06,26,11.80
2008,08,22,06,27,11.80
2008,08,22,06,28,11.80
2008,08,22,06,29,11.80
2008,08,22,06,30,11.80
2008,08,22,06,31,11.80
2008,08,22,06,32,11.80
2008,08,22,06,33,11.80
2008,08,22,06,34,11.80
2008,08,22,06,35,11.80
2008,08,22,06,36,11.80
2008,08,22,06,37,11.80
2008,08,22,06,38,11.80
2008,08,22,06,39,11.80
2008,08,22,06,40,11.90
2008,08,22,06,41,11.90
2008,08,22,06,42,11.90
2008,08,22,06,43,11.90
2008,08,22,06,44,11.90
2008,08,22,06,45,11.90
2008,08,22,06,46,11.90
2008,08,22,06,47,12.00
2008,08,22,06,48,12.00
2008,08,22,06,49,12.00
2008,08,22,06,50,12.00
2008,08,22,06,51,12.10
2008,08,22,06,52,12.10
2008,08,22,06,53,12.10
2008,08,22,06,54,12.10
2008,08,22,06,55,12.10
2008,08,22,06,56,12.10
2008,08,22,06,57,12.20
2008,08,22,06,58,12.20
2008,08,22,06,59,12.20
2008,08,22,07,00,12.20
2008,08,22,07,01,12.20
2008,08,22,07,02,12.20
2008,08,22,07,03,12.20
2008,08,22,07,04,12.30
2008,08,22,07,05,12.30
2008,08,22,07,06,12.30
2008,08,22,07,07,12.30
2008,08,22,07,08,12.30
2008,08,22,07,09,12.40
2008,08,22,07,10,12.40
2008,08,22,07,11,12.40
2008,08,22,07,12,12.40
2008,08,22,07,13,12.40
2008,08,22,07,14,12.40
2008,08,22,07,15,12.40
2008,08,22,07,16,12.40
2008,08,22,07,17,12.40
2008,08,22,07,18,12.40
2008,08,22,07,19,12.40
2008,08,22,07,20,12.50
2008,08,22,07,21,12.50
2008,08,22,07,22,12.50
2008,08,22,07,23,12.50
2008,08,22,07,24,12.50
2008,08,22,07,25,12.50
2008,08,22,07,26,12.50
2008,08,22,07,27,12.50
2008,08,22,07,28,12.50
2008,08,22,07,29,12.50
2008,08,22,07,30,12.60
2008,08,22,07,31,12.60
2008,08,22,07,32,12.60
2008,08,22,07,33,12.60
2008,08,22,07,34,12.60
2008,08,22,07,35,12.70
2008,08,22,07,36,12.70
2008,08,22,07,37,12.70
2008,08,22,07,38,12.70
2008,08,22,07,39,12.80
2008,08,22,07,40,12.80
2008,08,22,07,41,12.80
2008,08,22,07,42,12.80
2008,08,22,07,43,12.80
2008,08,22,07,44,12.80
2008,08,22,07,45,12.90
2008,08,22,07,46,12.90
2008,08,22,07,47,12.90
2008,08,22,07,48,13.00
2008,08,22,07,49,13.00
2008,08,22,07,50,13.10
2008,08,22,07,51,13.10
2008,08,22,07,52,13.10
2008,08,22,07,53,13.10
2008,08,22,07,54,13.10
2008,08,22,07,55,13.10
2008,08,22,07,56,13.20
2008,08,22,07,57,13.20
2008,08,22,07,58,13.30
2008,08,22,07,59,13.30
2008,08,22,08,00,13.30
2008,08,22,08,01,13.40
2008,08,22,08,02,13.40
2008,08,22,08,03,13.40
2008,08,22,08,04,13.50
2008,08,22,08,05,13.50
2008,08,22,08,06,13.50
2008,08,22,08,07,13.60
2008,08,22,08,08,13.60
2008,08,22,08,09,13.60
2008,08,22,08,10,13.60
2008,08,22,08,11,13.60
2008,08,22,08,12,13.70
2008,08,22,08,13,13.70
2008,08,22,08,14,13.70
2008,08,22,08,15,13.80
2008,08,22,08,16,13.80
2008,08,22,08,17,13.80
2008,08,22,08,18,13.90
2008,08,22,08,19,13.90
2008,08,22,08,20,13.90
2008,08,22,08,21,14.00
2008,08,22,08,22,14.00
2008,08,22,08,23,14.10
2008,08,22,08,24,14.10
2008,08,22,08,25,14.10
2008,08,22,08,26,14.20
2008,08,22,08,27,14.20
2008,08,22,08,28,14.20
2008,08,22,08,29,14.20
2008,08,22,08,30,14.20
2008,08,22,08,31,14.20
2008,08,22,08,32,14.20
2008,08,22,08,33,14.20
2008,08,22,08,34,14.20
2008,08,22,08,35,14.30
2008,08,22,08,36,14.30
2008,08,22,08,37,14.40
2008,08,22,08,38,14.40
2008,08,22,08,39,14.50
2008,08,22,08,40,14.60
2008,08,22,08,41,14.70
2008,08,22,08,42,14.70
2008,08,22,08,43,14.90
2008,08,22,08,44,15.00
2008,08,22,08,45,15.00
2008,08,22,08,46,15.00
2008,08,22,08,47,15.00
2008,08,22,08,48,15.10
2008,08,22,08,49,15.10
2008,08,22,08,50,15.20
2008,08,22,08,51,15.20
2008,08,22,08,52,15.30
2008,08,22,08,53,15.30
2008,08,22,08,54,15.40
2008,08,22,08,55,15.50
2008,08,22,08,56,15.60
2008,08,22,08,57,15.60
2008,08,22,08,58,15.70
2008,08,22,08,59,15.70
2008,08,22,09,00,15.70
2008,08,22,09,01,15.70
2008,08,22,09,02,15.70
2008,08,22,09,03,15.80
2008,08,22,09,04,16.00
2008,08,22,09,05,16.10
2008,08,22,09,06,16.20
2008,08,22,09,07,16.30
2008,08,22,09,08,16.30
2008,08,22,09,09,16.30
2008,08,22,09,10,16.20
2008,08,22,09,11,16.10
2008,08,22,09,12,16.10
2008,08,22,09,13,16.00
2008,08,22,09,14,16.00
2008,08,22,09,15,15.90
2008,08,22,09,16,15.90
2008,08,22,09,17,16.00
2008,08,22,09,18,16.00
2008,08,22,09,19,16.00
2008,08,22,09,20,16.00
2008,08,22,09,21,15.90
2008,08,22,09,22,16.00
2008,08,22,09,23,16.10
2008,08,22,09,24,16.20
2008,08,22,09,25,16.30
2008,08,22,09,26,16.30
2008,08,22,09,27,16.30
2008,08,22,09,28,16.30
2008,08,22,09,29,16.20
2008,08,22,09,30,16.20
2008,08,22,09,31,16.10
2008,08,22,09,32,16.00
2008,08,22,09,33,15.80
2008,08,22,09,34,15.80
2008,08,22,09,35,15.80
2008,08,22,09,36,15.80
2008,08,22,09,37,15.80
2008,08,22,09,38,15.90
2008,08,22,09,39,15.90
2008,08,22,09,40,15.80
2008,08,22,09,41,15.70
2008,08,22,09,42,15.80
2008,08,22,09,43,15.80
2008,08,22,09,44,15.90
2008,08,22,09,45,15.90
2008,08,22,09,46,16.00
2008,08,22,09,47,16.10
2008,08,22,09,48,16.20
2008,08,22,09,49,16.40
2008,08,22,09,50,16.50
2008,08,22,09,51,16.40
2008,08,22,09,52,16.40
2008,08,22,09,53,16.50
2008,08,22,09,54,16.50
2008,08,22,09,55,16.50
2008,08,22,09,56,16.40
2008,08,22,09,57,16.50
2008,08,22,09,58,16.50
2008,08,22,09,59,16.40
2008,08,22,10,00,16.40
2008,08,22,10,01,16.30
2008,08,22,10,02,16.40
2008,08,22,10,03,16.50
2008,08,22,10,04,16.50
2008,08,22,10,05,16.40
2008,08,22,10,06,16.30
2008,08,22,10,07,16.40
2008,08,22,10,08,16.50
2008,08,22,10,09,16.50
2008,08,22,10,10,16.50
2008,08,22,10,11,16.40
2008,08,22,10,12,16.30
2008,08,22,10,13,16.30
2008,08,22,10,14,16.30
2008,08,22,10,15,16.30
2008,08,22,10,16,16.30
2008,08,22,10,17,16.30
2008,08,22,10,18,16.40
2008,08,22,10,19,16.50
2008,08,22,10,20,16.50
2008,08,22,10,21,16.50
2008,08,22,10,22,16.60
2008,08,22,10,23,16.70
2008,08,22,10,24,16.70
2008,08,22,10,25,16.60
2008,08,22,10,26,16.60
2008,08,22,10,27,16.60
2008,08,22,10,28,16.70
2008,08,22,10,29,16.70
2008,08,22,10,30,16.70
2008,08,22,10,31,16.80
2008,08,22,10,32,16.80
2008,08,22,10,33,17.00
2008,08,22,10,34,17.20
2008,08,22,10,35,17.30
2008,08,22,10,36,17.20
2008,08,22,10,37,17.10
2008,08,22,10,38,17.00
2008,08,22,10,39,17.00
2008,08,22,10,40,17.00
2008,08,22,10,41,17.00
2008,08,22,10,42,16.90
2008,08,22,10,43,17.00
2008,08,22,10,44,17.10
2008,08,22,10,45,17.20
2008,08,22,10,46,17.30
2008,08,22,10,47,17.50
2008,08,22,10,48,17.50
2008,08,22,10,49,17.40
2008,08,22,10,50,17.30
2008,08,22,10,51,17.30
2008,08,22,10,52,17.30
2008,08,22,10,53,17.40
2008,08,22,10,54,17.40
2008,08,22,10,55,17.50
2008,08,22,10,56,17.60
2008,08,22,10,57,17.50
2008,08,22,10,58,17.50
2008,08,22,10,59,17.40
2008,08,22,11,00,17.30
2008,08,22,11,01,17.20
2008,08,22,11,02,17.20
2008,08,22,11,03,17.10
2008,08,22,11,04,17.10
2008,08,22,11,05,17.10
2008,08,22,11,06,17.10
2008,08,22,11,07,17.30
2008,08,22,11,08,17.40
2008,08,22,11,09,17.50
2008,08,22,11,10,17.50
2008,08,22,11,11,17.50
2008,08,22,11,12,17.50
2008,08,22,11,13,17.60
2008,08,22,11,14,17.70
2008,08,22,11,15,17.70
2008,08,22,11,16,17.60
2008,08,22,11,17,17.30
2008,08,22,11,18,17.10
2008,08,22,11,19,16.90
2008,08,22,11,20,16.80
2008,08,22,11,21,16.70
2008,08,22,11,22,16.60
2008,08,22,11,23,16.50
2008,08,22,11,24,16.40
2008,08,22,11,25,16.30
2008,08,22,11,26,16.30
2008,08,22,11,27,16.30
2008,08,22,11,28,16.40
2008,08,22,11,29,16.30
2008,08,22,11,30,16.30
2008,08,22,11,31,16.40
2008,08,22,11,32,16.40
2008,08,22,11,33,16.40
2008,08,22,11,34,16.40
2008,08,22,11,35,16.40
2008,08,22,11,36,16.40
2008,08,22,11,37,16.50
2008,08,22,11,38,16.50
2008,08,22,11,39,16.60
2008,08,22,11,40,16.60
2008,08,22,11,41,16.60
2008,08,22,11,42,16.60
2008,08,22,11,43,16.70
2008,08,22,11,44,16.80
2008,08,22,11,45,16.90
2008,08,22,11,46,16.90
2008,08,22,11,47,17.00
2008,08,22,11,48,16.90
2008,08,22,11,49,16.90
2008,08,22,11,50,16.90
2008,08,22,11,51,16.80
2008,08,22,11,52,16.60
2008,08,22,11,53,16.50
2008,08,22,11,54,16.40
2008,08,22,11,55,16.40
2008,08,22,11,56,16.50
2008,08,22,11,57,16.60
2008,08,22,11,58,16.50
2008,08,22,11,59,16.60
2008,08,22,12,00,16.60
2008,08,22,12,01,16.60
2008,08,22,12,02,16.60
2008,08,22,12,03,16.60
2008,08,22,12,04,16.70
2008,08,22,12,05,16.70
2008,08,22,12,06,16.90
2008,08,22,12,07,16.90
2008,08,22,12,08,16.80
2008,08,22,12,09,16.80
2008,08,22,12,10,16.70
2008,08,22,12,11,16.80
2008,08,22,12,12,16.90
2008,08,22,12,13,16.90
2008,08,22,12,14,16.80
2008,08,22,12,15,16.80
2008,08,22,12,16,16.70
2008,08,22,12,17,16.70
2008,08,22,12,18,16.70
2008,08,22,12,19,16.80
2008,08,22,12,20,16.90
2008,08,22,12,21,17.00
2008,08,22,12,22,17.00
2008,08,22,12,23,17.00
2008,08,22,12,24,17.00
2008,08,22,12,25,17.00
2008,08,22,12,26,17.00
2008,08,22,12,27,17.00
2008,08,22,12,28,17.00
2008,08,22,12,29,16.90
2008,08,22,12,30,16.90
2008,08,22,12,31,16.90
2008,08,22,12,32,16.90
2008,08,22,12,33,17.00
2008,08,22,12,34,17.20
2008,08,22,12,35,17.30
2008,08,22,12,36,17.30
2008,08,22,12,37,17.40
2008,08,22,12,38,17.40
2008,08,22,12,39,17.40
2008,08,22,12,40,17.50
2008,08,22,12,41,17.60
2008,08,22,12,42,17.70
2008,08,22,12,43,17.70
2008,08,22,12,44,17.60
2008,08,22,12,45,17.60
2008,08,22,12,46,17.70
2008,08,22,12,47,17.80
2008,08,22,12,48,17.90
2008,08,22,12,49,18.00
2008,08,22,12,50,18.10
2008,08,22,12,51,18.00
2008,08,22,12,52,18.00
2008,08,22,12,53,18.00
2008,08,22,12,54,18.10
2008,08,22,12,55,18.20
2008,08,22,12,56,18.30
2008,08,22,12,57,18.30
2008,08,22,12,58,18.50
2008,08,22,12,59,18.60
2008,08,22,13,00,18.70
2008,08,22,13,01,18.70
2008,08,22,13,02,18.60
2008,08,22,13,03,18.60
2008,08,22,13,04,18.60
2008,08,22,13,05,18.60
2008,08,22,13,06,18.60
2008,08,22,13,07,18.50
2008,08,22,13,08,18.40
2008,08,22,13,09,18.30
2008,08,22,13,10,18.30
2008,08,22,13,11,18.30
2008,08,22,13,12,18.40
2008,08,22,13,13,18.40
2008,08,22,13,14,18.40
2008,08,22,13,15,18.40
2008,08,22,13,16,18.50
2008,08,22,13,17,18.60
2008,08,22,13,18,18.60
2008,08,22,13,19,18.60
2008,08,22,13,20,18.60
2008,08,22,13,21,18.60
2008,08,22,13,22,18.70
2008,08,22,13,23,18.80
2008,08,22,13,24,18.80
2008,08,22,13,25,18.80
2008,08,22,13,26,18.70
2008,08,22,13,27,18.60
2008,08,22,13,28,18.60
2008,08,22,13,29,18.50
2008,08,22,13,30,18.40
2008,08,22,13,31,18.50
2008,08,22,13,32,18.50
2008,08,22,13,33,18.60
2008,08,22,13,34,18.70
2008,08,22,13,35,18.80
2008,08,22,13,36,18.80
2008,08,22,13,37,18.80
2008,08,22,13,38,18.90
2008,08,22,13,39,18.90
2008,08,22,13,40,19.00
2008,08,22,13,41,19.10
2008,08,22,13,42,19.10
2008,08,22,13,43,19.10
2008,08,22,13,44,19.00
2008,08,22,13,45,18.90
2008,08,22,13,46,18.90
2008,08,22,13,47,18.80
2008,08,22,13,48,18.80
2008,08,22,13,49,18.80
2008,08,22,13,50,19.00
2008,08,22,13,51,19.00
2008,08,22,13,52,19.10
2008,08,22,13,53,19.10
2008,08,22,13,54,19.20
2008,08,22,13,55,19.30
2008,08,22,13,56,19.40
2008,08,22,13,57,19.70
2008,08,22,13,58,19.80
2008,08,22,13,59,20.00
2008,08,22,14,00,20.00
2008,08,22,14,01,19.90
2008,08,22,14,02,19.80
2008,08,22,14,03,19.70
2008,08,22,14,04,19.60
2008,08,22,14,05,19.50
2008,08,22,14,06,19.50
2008,08,22,14,07,19.40
2008,08,22,14,08,19.30
2008,08,22,14,09,19.30
2008,08,22,14,10,19.30
2008,08,22,14,11,19.40
2008,08,22,14,12,19.50
2008,08,22,14,13,19.60
2008,08,22,14,14,19.70
2008,08,22,14,15,19.80
2008,08,22,14,16,19.80
2008,08,22,14,17,19.70
2008,08,22,14,18,19.70
2008,08,22,14,19,19.80
2008,08,22,14,20,19.80
2008,08,22,14,21,19.80
2008,08,22,14,22,19.70
2008,08,22,14,23,19.60
2008,08,22,14,24,19.50
2008,08,22,14,25,19.50
2008,08,22,14,26,19.50
2008,08,22,14,27,19.50
2008,08,22,14,28,19.50
2008,08,22,14,29,19.50
2008,08,22,14,30,19.60
2008,08,22,14,31,19.60
2008,08,22,14,32,19.70
2008,08,22,14,33,19.70
2008,08,22,14,34,19.70
2008,08,22,14,35,19.80
2008,08,22,14,36,19.80
2008,08,22,14,37,19.90
2008,08,22,14,38,19.90
2008,08,22,14,39,19.90
2008,08,22,14,40,19.80
2008,08,22,14,41,19.70
2008,08,22,14,42,19.70
2008,08,22,14,43,19.60
2008,08,22,14,44,19.60
2008,08,22,14,45,19.60
2008,08,22,14,46,19.50
2008,08,22,14,47,19.50
2008,08,22,14,48,19.40
2008,08,22,14,49,19.30
2008,08,22,14,50,19.20
2008,08,22,14,51,19.10
2008,08,22,14,52,19.10
2008,08,22,14,53,19.20
2008,08,22,14,54,19.30
2008,08,22,14,55,19.30
2008,08,22,14,56,19.40
2008,08,22,14,57,19.50
2008,08,22,14,58,19.60
2008,08,22,14,59,19.70
2008,08,22,15,00,19.70
2008,08,22,15,01,19.70
2008,08,22,15,02,19.80
2008,08,22,15,03,19.80
2008,08,22,15,04,19.70
2008,08,22,15,05,19.70
2008,08,22,15,06,19.70
2008,08,22,15,07,19.70
2008,08,22,15,08,19.70
2008,08,22,15,09,19.70
2008,08,22,15,10,19.80
2008,08,22,15,11,19.80
2008,08,22,15,12,19.90
2008,08,22,15,13,19.90
2008,08,22,15,14,19.90
2008,08,22,15,15,19.90
2008,08,22,15,16,19.80
2008,08,22,15,17,19.80
2008,08,22,15,18,19.80
2008,08,22,15,19,19.80
2008,08,22,15,20,19.80
2008,08,22,15,21,19.90
2008,08,22,15,22,19.90
2008,08,22,15,23,19.90
2008,08,22,15,24,20.00
2008,08,22,15,25,20.10
2008,08,22,15,26,20.20
2008,08,22,15,27,20.40
2008,08,22,15,28,20.60
2008,08,22,15,29,20.70
2008,08,22,15,30,20.80
2008,08,22,15,31,20.90
2008,08,22,15,32,20.90
2008,08,22,15,33,20.90
2008,08,22,15,34,20.90
2008,08,22,15,35,20.80
2008,08,22,15,36,20.80
2008,08,22,15,37,20.80
2008,08,22,15,38,20.80
2008,08,22,15,39,20.80
2008,08,22,15,40,20.80
2008,08,22,15,41,20.80
2008,08,22,15,42,20.80
2008,08,22,15,43,20.80
2008,08,22,15,44,20.80
2008,08,22,15,45,20.70
2008,08,22,15,46,20.70
2008,08,22,15,47,20.60
2008,08,22,15,48,20.50
2008,08,22,15,49,20.40
2008,08,22,15,50,20.30
2008,08,22,15,51,20.30
2008,08,22,15,52,20.40
2008,08,22,15,53,20.40
2008,08,22,15,54,20.40
2008,08,22,15,55,20.30
2008,08,22,15,56,20.20
2008,08,22,15,57,20.20
2008,08,22,15,58,20.20
2008,08,22,15,59,20.20
2008,08,22,16,00,20.30
2008,08,22,16,01,20.30
2008,08,22,16,02,20.40
2008,08,22,16,03,20.50
2008,08,22,16,04,20.60
2008,08,22,16,05,20.60
2008,08,22,16,06,20.50
2008,08,22,16,07,20.50
2008,08,22,16,08,20.50
2008,08,22,16,09,20.50
2008,08,22,16,10,20.60
2008,08,22,16,11,20.60
2008,08,22,16,12,20.70
2008,08,22,16,13,20.80
2008,08,22,16,14,20.70
2008,08,22,16,15,20.60
2008,08,22,16,16,20.40
2008,08,22,16,17,20.20
2008,08,22,16,18,20.10
2008,08,22,16,19,19.90
2008,08,22,16,20,19.80
2008,08,22,16,21,19.70
2008,08,22,16,22,19.70
2008,08,22,16,23,19.60
2008,08,22,16,24,19.50
2008,08,22,16,25,19.40
2008,08,22,16,26,19.40
2008,08,22,16,27,19.30
2008,08,22,16,28,19.30
2008,08,22,16,29,19.20
2008,08,22,16,30,19.20
2008,08,22,16,31,19.30
2008,08,22,16,32,19.30
2008,08,22,16,33,19.40
2008,08,22,16,34,19.40
2008,08,22,16,35,19.50
2008,08,22,16,36,19.50
2008,08,22,16,37,19.50
2008,08,22,16,38,19.60
2008,08,22,16,39,19.60
2008,08,22,16,40,19.60
2008,08,22,16,41,19.60
2008,08,22,16,42,19.60
2008,08,22,16,43,19.70
2008,08,22,16,44,19.70
2008,08,22,16,45,19.70
2008,08,22,16,46,19.70
2008,08,22,16,47,19.70
2008,08,22,16,48,19.60
2008,08,22,16,49,19.50
2008,08,22,16,50,19.50
2008,08,22,16,51,19.50
2008,08,22,16,52,19.40
2008,08,22,16,53,19.40
2008,08,22,16,54,19.40
2008,08,22,16,55,19.40
2008,08,22,16,56,19.40
2008,08,22,16,57,19.40
2008,08,22,16,58,19.40
2008,08,22,16,59,19.40
2008,08,22,17,00,19.40
2008,08,22,17,01,19.40
2008,08,22,17,02,19.30
2008,08,22,17,03,19.30
2008,08,22,17,04,19.30
2008,08,22,17,05,19.40
2008,08,22,17,06,19.40
2008,08,22,17,07,19.40
2008,08,22,17,08,19.40
2008,08,22,17,09,19.40
2008,08,22,17,10,19.40
2008,08,22,17,11,19.40
2008,08,22,17,12,19.40
2008,08,22,17,13,19.50
2008,08,22,17,14,19.50
2008,08,22,17,15,19.50
2008,08,22,17,16,19.50
2008,08,22,17,17,19.50
2008,08,22,17,18,19.40
2008,08,22,17,19,19.40